Time,TemperatureF,DewpointF,PressureIn,WindDirection,WindDirectionDegrees,WindSpeedMPH,WindSpeedGustMPH,Humidity,HourlyPrecipIn,Conditions,Clouds,dailyrainin,SoftwareType,DateUTC
2013-04-23 00:13:00,33.8,20.6,30.20,East,90,0.0,-999.0,58,-99.99,,,0.00,Acu-Link.com,2013-04-23 07:13:00,
2013-04-23 00:28:00,33.8,21.8,30.18,NE,45,0.0,-999.0,61,-99.99,,,0.00,Acu-Link.com,2013-04-23 07:28:00,
2013-04-23 00:44:00,33.8,21.8,30.18,NNE,22,0.0,-999.0,61,-99.99,,,0.00,Acu-Link.com,2013-04-23 07:44:00,
2013-04-23 00:59:00,33.8,21.4,30.18,NE,45,0.0,-999.0,60,-99.99,,,0.00,Acu-Link.com,2013-04-23 07:59:00,
2013-04-23 01:14:00,33.8,21.8,30.18,SSW,202,0.0,-999.0,61,-99.99,,,0.00,Acu-Link.com,2013-04-23 08:14:00,
2013-04-23 01:29:00,33.8,22.2,30.18,SSW,202,0.0,-999.0,62,-99.99,,,0.00,Acu-Link.com,2013-04-23 08:29:00,
2013-04-23 01:45:00,32.0,21.2,30.18,WSW,247,0.0,-999.0,64,-99.99,,,0.00,Acu-Link.com,2013-04-23 08:45:00,
2013-04-23 02:00:00,32.0,21.2,30.17,SSE,157,0.0,-999.0,64,-99.99,,,0.00,Acu-Link.com,2013-04-23 09:00:00,
2013-04-23 02:15:00,32.0,21.9,30.17,East,90,0.0,-999.0,66,-99.99,,,0.00,Acu-Link.com,2013-04-23 09:15:00,
2013-04-23 02:30:00,32.0,22.7,30.17,NNW,337,0.0,-999.0,68,-99.99,,,0.00,Acu-Link.com,2013-04-23 09:30:00,
2013-04-23 02:45:00,32.0,22.7,30.17,East,90,0.0,-999.0,68,-99.99,,,0.00,Acu-Link.com,2013-04-23 09:45:00,
2013-04-23 03:01:00,35.6,25.7,30.17,NE,45,2.7,-999.0,67,-99.99,,,0.00,Acu-Link.com,2013-04-23 10:01:00,
2013-04-23 03:16:00,35.6,25.0,30.17,ESE,112,0.0,-999.0,65,-99.99,,,0.00,Acu-Link.com,2013-04-23 10:16:00,
2013-04-23 03:31:00,35.6,24.6,30.16,East,90,0.0,-999.0,64,-99.99,,,0.00,Acu-Link.com,2013-04-23 10:31:00,
2013-04-23 03:46:00,37.4,26.0,30.16,SE,135,0.0,-999.0,63,-99.99,,,0.00,Acu-Link.com,2013-04-23 10:46:00,
2013-04-23 04:01:00,37.4,26.4,30.16,ENE,67,0.0,-999.0,64,-99.99,,,0.00,Acu-Link.com,2013-04-23 11:01:00,
2013-04-23 04:16:00,37.4,26.7,30.16,NE,45,0.0,-999.0,65,-99.99,,,0.00,Acu-Link.com,2013-04-23 11:16:00,
2013-04-23 04:32:00,37.4,27.8,30.17,ESE,112,0.0,-999.0,68,-99.99,,,0.00,Acu-Link.com,2013-04-23 11:32:00,
2013-04-23 04:47:00,37.4,29.2,30.17,NNW,337,3.1,-999.0,72,-99.99,,,0.00,Acu-Link.com,2013-04-23 11:47:00,
2013-04-23 05:02:00,37.4,30.9,30.17,SE,135,0.0,-999.0,77,-99.99,,,0.00,Acu-Link.com,2013-04-23 12:02:00,
2013-04-23 05:17:00,35.6,31.0,30.18,West,270,1.1,-999.0,83,-99.99,,,0.00,Acu-Link.com,2013-04-23 12:17:00,
2013-04-23 05:33:00,35.6,31.8,30.19,SSW,202,1.6,-999.0,86,-99.99,,,0.01,Acu-Link.com,2013-04-23 12:33:00,
2013-04-23 05:48:00,35.6,32.4,30.19,WNW,292,3.1,-999.0,88,-99.99,,,0.01,Acu-Link.com,2013-04-23 12:48:00,
2013-04-23 06:03:00,33.8,30.9,30.19,NW,315,1.6,-999.0,89,-99.99,,,0.02,Acu-Link.com,2013-04-23 13:03:00,
2013-04-23 06:18:00,33.8,30.9,30.19,ESE,112,0.0,-999.0,89,-99.99,,,0.04,Acu-Link.com,2013-04-23 13:18:00,
2013-04-23 06:34:00,33.8,31.2,30.18,NW,315,0.0,-999.0,90,-99.99,,,0.04,Acu-Link.com,2013-04-23 13:34:00,
2013-04-23 06:49:00,33.8,31.2,30.19,NW,315,1.6,-999.0,90,-99.99,,,0.04,Acu-Link.com,2013-04-23 13:49:00,
2013-04-23 07:04:00,33.8,31.5,30.19,West,270,1.1,-999.0,91,-99.99,,,0.05,Acu-Link.com,2013-04-23 14:04:00,
2013-04-23 07:19:00,33.8,33.3,30.19,NW,315,1.1,-999.0,98,-99.99,,,0.05,Acu-Link.com,2013-04-23 14:19:00,
2013-04-23 07:35:00,33.8,33.3,30.19,NNE,22,2.0,-999.0,98,-99.99,,,0.06,Acu-Link.com,2013-04-23 14:35:00,
2013-04-23 07:50:00,33.8,33.3,30.19,NNW,337,1.1,-999.0,98,-99.99,,,0.06,Acu-Link.com,2013-04-23 14:50:00,
2013-04-23 08:05:00,35.6,35.1,30.20,ESE,112,0.0,-999.0,98,-99.99,,,0.07,Acu-Link.com,2013-04-23 15:05:00,
2013-04-23 08:20:00,35.6,33.5,30.21,SSE,157,3.1,-999.0,92,-99.99,,,0.07,Acu-Link.com,2013-04-23 15:20:00,
2013-04-23 08:35:00,35.6,33.0,30.21,NW,315,2.7,-999.0,90,-99.99,,,0.07,Acu-Link.com,2013-04-23 15:35:00,
2013-04-23 08:50:00,37.4,34.7,30.21,NNW,337,4.7,-999.0,90,-99.99,,,0.07,Acu-Link.com,2013-04-23 15:50:00,
2013-04-23 09:05:00,37.4,34.5,30.21,NNW,337,4.0,-999.0,89,-99.99,,,0.07,Acu-Link.com,2013-04-23 16:05:00,
2013-04-23 09:21:00,37.4,33.9,30.21,ENE,67,2.0,-999.0,87,-99.99,,,0.07,Acu-Link.com,2013-04-23 16:21:00,
2013-04-23 09:36:00,37.4,34.2,30.22,North,0,3.6,-999.0,88,-99.99,,,0.07,Acu-Link.com,2013-04-23 16:36:00,
2013-04-23 09:51:00,37.4,34.2,30.22,SE,135,0.0,-999.0,88,-99.99,,,0.07,Acu-Link.com,2013-04-23 16:51:00,
2013-04-23 10:06:00,37.4,33.6,30.22,NE,45,3.6,-999.0,86,-99.99,,,0.07,Acu-Link.com,2013-04-23 17:06:00,
2013-04-23 10:21:00,39.2,35.1,30.23,NW,315,7.8,-999.0,85,-99.99,,,0.07,Acu-Link.com,2013-04-23 17:21:00,
2013-04-23 10:36:00,41.0,36.2,30.23,NW,315,3.6,-999.0,83,-99.99,,,0.07,Acu-Link.com,2013-04-23 17:36:00,
2013-04-23 10:52:00,41.0,35.6,30.24,SE,135,2.7,-999.0,81,-99.99,,,0.07,Acu-Link.com,2013-04-23 17:52:00,
2013-04-23 11:07:00,42.8,36.4,30.25,ENE,67,2.0,-999.0,78,-99.99,,,0.07,Acu-Link.com,2013-04-23 18:07:00,
2013-04-23 11:22:00,44.6,36.8,30.24,North,0,5.1,-999.0,74,-99.99,,,0.07,Acu-Link.com,2013-04-23 18:22:00,
2013-04-23 11:37:00,42.8,35.4,30.25,NNE,22,4.0,-999.0,75,-99.99,,,0.07,Acu-Link.com,2013-04-23 18:37:00,
2013-04-23 11:52:00,44.6,36.1,30.25,East,90,3.6,-999.0,72,-99.99,,,0.07,Acu-Link.com,2013-04-23 18:52:00,
2013-04-23 12:07:00,44.6,34.7,30.25,NNW,337,3.6,-999.0,68,-99.99,,,0.07,Acu-Link.com,2013-04-23 19:07:00,
2013-04-23 12:23:00,44.6,35.8,30.25,NW,315,2.0,-999.0,71,-99.99,,,0.07,Acu-Link.com,2013-04-23 19:23:00,
2013-04-23 12:38:00,42.8,33.0,30.25,WNW,292,4.7,-999.0,68,-99.99,,,0.07,Acu-Link.com,2013-04-23 19:38:00,
2013-04-23 12:53:00,44.6,33.6,30.25,SSW,202,3.1,-999.0,65,-99.99,,,0.07,Acu-Link.com,2013-04-23 19:53:00,
2013-04-23 13:08:00,44.6,32.0,30.25,NNW,337,4.7,-999.0,61,-99.99,,,0.07,Acu-Link.com,2013-04-23 20:08:00,
2013-04-23 13:23:00,44.6,32.4,30.25,ESE,112,4.0,-999.0,62,-99.99,,,0.07,Acu-Link.com,2013-04-23 20:23:00,
2013-04-23 13:39:00,44.6,32.4,30.26,NW,315,4.7,-999.0,62,-99.99,,,0.07,Acu-Link.com,2013-04-23 20:39:00,
2013-04-23 13:54:00,42.8,32.2,30.26,West,270,2.0,-999.0,66,-99.99,,,0.07,Acu-Link.com,2013-04-23 20:54:00,
2013-04-23 14:09:00,44.6,32.4,30.26,NE,45,4.0,-999.0,62,-99.99,,,0.07,Acu-Link.com,2013-04-23 21:09:00,
2013-04-23 14:25:00,46.4,32.4,30.25,SSW,202,4.0,-999.0,58,-99.99,,,0.07,Acu-Link.com,2013-04-23 21:25:00,
2013-04-23 14:40:00,50.0,32.1,30.25,NNE,22,2.7,-999.0,50,-99.99,,,0.07,Acu-Link.com,2013-04-23 21:40:00,
2013-04-23 14:55:00,50.0,32.6,30.25,NW,315,3.1,-999.0,51,-99.99,,,0.07,Acu-Link.com,2013-04-23 21:55:00,
2013-04-23 15:10:00,51.8,32.2,30.25,NNW,337,1.6,-999.0,47,-99.99,,,0.07,Acu-Link.com,2013-04-23 22:10:00,
2013-04-23 15:26:00,51.8,32.7,30.25,North,0,3.6,-999.0,48,-99.99,,,0.07,Acu-Link.com,2013-04-23 22:26:00,
2013-04-23 15:41:00,51.8,32.2,30.24,SW,225,5.6,-999.0,47,-99.99,,,0.07,Acu-Link.com,2013-04-23 22:41:00,
2013-04-23 15:56:00,53.6,33.3,30.24,NNE,22,2.7,-999.0,46,-99.99,,,0.07,Acu-Link.com,2013-04-23 22:56:00,
2013-04-23 16:11:00,51.8,33.3,30.24,ENE,67,1.6,-999.0,49,-99.99,,,0.07,Acu-Link.com,2013-04-23 23:11:00,
2013-04-23 16:26:00,53.6,30.5,30.23,NNW,337,2.7,-999.0,41,-99.99,,,0.07,Acu-Link.com,2013-04-23 23:26:00,
2013-04-23 16:42:00,50.0,30.0,30.22,NE,45,1.6,-999.0,46,-99.99,,,0.07,Acu-Link.com,2013-04-23 23:42:00,
2013-04-23 16:57:00,50.0,29.5,30.22,East,90,1.6,-999.0,45,-99.99,,,0.07,Acu-Link.com,2013-04-23 23:57:00,
2013-04-23 17:12:00,50.0,30.6,30.22,SSE,157,4.0,-999.0,47,-99.99,,,0.07,Acu-Link.com,2013-04-24 00:12:00,
2013-04-23 17:27:00,51.8,31.7,30.21,SSW,202,2.7,-999.0,46,-99.99,,,0.07,Acu-Link.com,2013-04-24 00:27:00,
2013-04-23 17:43:00,53.6,31.7,30.21,North,0,0.0,-999.0,43,-99.99,,,0.07,Acu-Link.com,2013-04-24 00:43:00,
2013-04-23 17:58:00,53.6,30.5,30.21,SE,135,2.0,-999.0,41,-99.99,,,0.07,Acu-Link.com,2013-04-24 00:58:00,
2013-04-23 18:13:00,50.0,29.0,30.21,North,0,3.1,-999.0,44,-99.99,,,0.07,Acu-Link.com,2013-04-24 01:13:00,
2013-04-23 18:29:00,50.0,29.5,30.21,NNE,22,5.1,-999.0,45,-99.99,,,0.07,Acu-Link.com,2013-04-24 01:29:00,
2013-04-23 18:44:00,50.0,30.0,30.20,South,180,2.7,-999.0,46,-99.99,,,0.07,Acu-Link.com,2013-04-24 01:44:00,
2013-04-23 18:59:00,46.4,28.3,30.20,East,90,0.0,-999.0,49,-99.99,,,0.07,Acu-Link.com,2013-04-24 01:59:00,
2013-04-23 19:14:00,46.4,28.8,30.21,ESE,112,0.0,-999.0,50,-99.99,,,0.07,Acu-Link.com,2013-04-24 02:14:00,
2013-04-23 19:29:00,46.4,28.3,30.21,NNW,337,1.1,-999.0,49,-99.99,,,0.07,Acu-Link.com,2013-04-24 02:29:00,
2013-04-23 19:59:00,44.6,27.6,30.21,ESE,112,0.0,-999.0,51,-99.99,,,0.07,Acu-Link.com,2013-04-24 02:59:00,
2013-04-23 20:14:00,42.8,26.4,30.21,NE,45,0.0,-999.0,52,-99.99,,,0.07,Acu-Link.com,2013-04-24 03:14:00,
2013-04-23 20:29:00,41.0,25.6,30.22,NNE,22,0.0,-999.0,54,-99.99,,,0.07,Acu-Link.com,2013-04-24 03:29:00,
2013-04-23 21:00:00,41.0,26.9,30.22,NNE,22,0.0,-999.0,57,-99.99,,,0.07,Acu-Link.com,2013-04-24 04:00:00,
2013-04-23 21:15:00,39.2,25.7,30.22,NNE,22,0.0,-999.0,58,-99.99,,,0.07,Acu-Link.com,2013-04-24 04:15:00,
2013-04-23 21:30:00,37.4,24.0,30.22,NE,45,0.0,-999.0,58,-99.99,,,0.07,Acu-Link.com,2013-04-24 04:30:00,
2013-04-23 21:45:00,37.4,24.4,30.22,NE,45,0.0,-999.0,59,-99.99,,,0.07,Acu-Link.com,2013-04-24 04:45:00,
2013-04-23 22:00:00,37.4,24.8,30.22,NE,45,0.0,-999.0,60,-99.99,,,0.07,Acu-Link.com,2013-04-24 05:00:00,
2013-04-23 22:15:00,35.6,23.9,30.22,ENE,67,0.0,-999.0,62,-99.99,,,0.07,Acu-Link.com,2013-04-24 05:15:00,
2013-04-23 22:31:00,35.6,25.0,30.21,NE,45,0.0,-999.0,65,-99.99,,,0.07,Acu-Link.com,2013-04-24 05:31:00,
2013-04-23 22:46:00,33.8,24.0,30.21,ENE,67,0.0,-999.0,67,-99.99,,,0.07,Acu-Link.com,2013-04-24 05:46:00,
2013-04-23 23:01:00,33.8,24.7,30.21,ENE,67,0.0,-999.0,69,-99.99,,,0.07,Acu-Link.com,2013-04-24 06:01:00,
2013-04-23 23:17:00,32.0,24.3,30.21,ENE,67,0.0,-999.0,73,-99.99,,,0.07,Acu-Link.com,2013-04-24 06:17:00,
2013-04-23 23:32:00,32.0,25.3,30.21,ENE,67,0.0,-999.0,76,-99.99,,,0.07,Acu-Link.com,2013-04-24 06:32:00,
2013-04-23 23:47:00,32.0,25.9,30.21,ENE,67,0.0,-999.0,78,-99.99,,,0.07,Acu-Link.com,2013-04-24 06:47:00,